Chitose AB, Japan

6:28 PM JST on July 21, 2017 (GMT +0900)
New Chitose

Weather History for RJCC - November, 2013

Change the Weather History Date:

Tuesday, November 26, 2013

  Actual Average Record
Temperature  
Mean Temperature 44 °F -  
Max Temperature 53 °F 33 °F 55 °F (1997)
Min Temperature 35 °F 15 °F 10 °F (2015)
Degree Days  
Heating Degree Days 21    
Moisture  
Dew Point 31 °F    
Average Humidity 59    
Maximum Humidity 94    
Minimum Humidity 34    
Precipitation  
Precipitation 0.00 in - - ()
Sea Level Pressure  
Sea Level Pressure 29.46 in    
Wind  
Wind Speed 15 mph ()    
Max Wind Speed 29 mph    
Max Gust Speed 40 mph    
Visibility 6.1 miles    
Events Rain , Snow    
Averages and records for this station are not official NWS values.
T = Trace of Precipitation, MM = Missing Value Source: Averaged Metar Reports

Daily Weather History Graph

Daily Weather History Graph

Search for Another Location

Airport or City:

Trip Planner

Search our weather history database for the weather conditions in past years. The results will help you decide how hot, cold, wet, or windy it might be!

Date:

Astronomy

Nov. 26, 2013 Rise Set
Actual Time 6:38 AM JST 4:02 PM JST
Civil Twilight 6:06 AM JST 4:33 PM JST
Nautical Twilight 5:32 AM JST 5:08 PM JST
Astronomical Twilight 4:58 AM JST 5:42 PM JST
Moon 11:54 PM JST (11/26) 11:59 AM JST (11/26)
Length of Visible Light 10h 26m
Length of Day
9h 24m
Waning Gibbous, 47% of the Moon is Illuminated
Nov 26
Waning Gibbous
Dec 3
New
Dec 10
First Quarter
Dec 17
Full
Dec 25
Last Quarter

Hourly Weather History & Observations

Time (JST) Temp. Windchill Dew Point Humidity Pressure Visibility Wind Dir Wind Speed Gust Speed Precip Events Conditions
12:00 AM 53.6 °F - 51.8 °F 94% 29.39 in 3.7 mi South 23.0 mph 35.7 mph N/A Rain Light Rain Showers
12:19 AM 53.6 °F - 51.8 °F 94% 29.42 in 3.7 mi SW 20.7 mph - N/A Rain Heavy Rain Showers
12:30 AM 51.8 °F - 48.2 °F 88% 29.42 in 6.2 mi SSW 24.2 mph 40.3 mph N/A Rain Rain Showers
1:00 AM 51.8 °F - 48.2 °F 88% 29.42 in 6.2 mi SSE 11.5 mph - N/A Rain Light Rain Showers
1:30 AM 50.0 °F - 48.2 °F 94% 29.39 in 6.2 mi SE 12.7 mph - N/A   Mostly Cloudy
2:00 AM 50.0 °F - 48.2 °F 94% 29.39 in 6.2 mi SSE 11.5 mph - N/A Rain Light Rain Showers
2:30 AM 51.8 °F - 48.2 °F 88% 29.36 in 6.2 mi SE 12.7 mph - N/A   Mostly Cloudy
3:00 AM 51.8 °F - 46.4 °F 82% 29.36 in 6.2 mi SE 12.7 mph - N/A   Mostly Cloudy
3:30 AM 51.8 °F - 46.4 °F 82% 29.36 in 6.2 mi SSE 15.0 mph - N/A Rain Light Rain Showers
4:00 AM 51.8 °F - 46.4 °F 82% 29.36 in 6.2 mi SSE 13.8 mph - N/A Rain Light Rain Showers
4:30 AM 51.8 °F - 46.4 °F 82% 29.39 in 6.2 mi SSE 11.5 mph - N/A   Mostly Cloudy
5:00 AM 51.8 °F - 42.8 °F 71% 29.36 in 6.2 mi South 11.5 mph - N/A   Mostly Cloudy
5:30 AM 50.0 °F - 39.2 °F 66% 29.36 in 6.2 mi South 10.4 mph - N/A   Mostly Cloudy
6:00 AM 50.0 °F - 37.4 °F 62% 29.36 in 6.2 mi South 11.5 mph - N/A   Mostly Cloudy
6:30 AM 50.0 °F - 39.2 °F 66% 29.39 in 6.2 mi SSW 11.5 mph - N/A   Mostly Cloudy
7:00 AM 48.2 °F - 39.2 °F 71% 29.39 in 6.2 mi South 9.2 mph - N/A   Mostly Cloudy
7:30 AM 48.2 °F - 37.4 °F 66% 29.39 in 6.2 mi SSE 11.5 mph - N/A   Mostly Cloudy
8:00 AM 48.2 °F - 35.6 °F 62% 29.39 in 6.2 mi SSW 17.3 mph - N/A   Mostly Cloudy
8:30 AM 48.2 °F - 37.4 °F 66% 29.39 in 6.2 mi South 18.4 mph - N/A   Scattered Clouds
9:00 AM 50.0 °F - 33.8 °F 54% 29.39 in 6.2 mi SSW 17.3 mph - N/A   Scattered Clouds
9:14 AM 51.8 °F - 33.8 °F 50% 29.39 in 6.2 mi WSW 18.4 mph 29.9 mph N/A   Scattered Clouds
9:30 AM 51.8 °F - 30.2 °F 44% 29.42 in 6.2 mi WSW 24.2 mph - N/A   Partly Cloudy
9:36 AM 50.0 °F - 26.6 °F 40% 29.42 in 6.2 mi SW 23.0 mph 34.5 mph N/A   Partly Cloudy
10:00 AM 50.0 °F - 28.4 °F 43% 29.42 in 6.2 mi SW 28.8 mph - N/A   Scattered Clouds
10:04 AM 50.0 °F - 26.6 °F 40% 29.42 in 6.2 mi SW 26.5 mph 38.0 mph N/A   Scattered Clouds
10:20 AM 48.2 °F - 32.0 °F 54% 29.42 in 6.2 mi West 15.0 mph - N/A   Scattered Clouds
10:30 AM 48.2 °F - 32.0 °F 54% 29.44 in 6.2 mi West 10.4 mph - N/A   Scattered Clouds
11:00 AM 50.0 °F - 26.6 °F 40% 29.44 in 6.2 mi SW 18.4 mph - N/A   Partly Cloudy
11:12 AM 48.2 °F - 26.6 °F 43% 29.44 in 6.2 mi SW 17.3 mph 28.8 mph N/A   Partly Cloudy
11:30 AM 48.2 °F - 26.6 °F 43% 29.44 in 6.2 mi SW 17.3 mph - N/A   Partly Cloudy
11:44 AM 48.2 °F - 24.8 °F 40% 29.42 in 6.2 mi SW 18.4 mph 29.9 mph N/A   Partly Cloudy
12:00 PM 48.2 °F - 24.8 °F 40% 29.42 in 6.2 mi SW 19.6 mph - N/A   Partly Cloudy
12:10 PM 48.2 °F - 24.8 °F 40% 29.42 in 6.2 mi SW 21.9 mph 33.4 mph N/A   Partly Cloudy
12:30 PM 46.4 °F 37.5 °F 24.8 °F 43% 29.44 in 6.2 mi WSW 27.6 mph - N/A   Partly Cloudy
1:00 PM 46.4 °F 38.5 °F 24.8 °F 43% 29.44 in 6.2 mi SSW 21.9 mph - N/A   Scattered Clouds
1:05 PM 46.4 °F 38.7 °F 23.0 °F 40% 29.44 in 6.2 mi SSW 20.7 mph 32.2 mph N/A   Partly Cloudy
1:30 PM 48.2 °F - 21.2 °F 34% 29.44 in 6.2 mi SSW 19.6 mph - N/A   Partly Cloudy
1:48 PM 46.4 °F 39.0 °F 19.4 °F 34% 29.44 in 6.2 mi SW 19.6 mph 31.1 mph N/A   Partly Cloudy
2:00 PM 46.4 °F 39.5 °F 21.2 °F 37% 29.44 in 6.2 mi SSW 17.3 mph - N/A   Partly Cloudy
2:30 PM 44.6 °F 36.6 °F 24.8 °F 46% 29.47 in 6.2 mi SSW 19.6 mph - N/A   Mostly Cloudy
2:45 PM 44.6 °F 36.9 °F 23.0 °F 43% 29.47 in 6.2 mi SSW 18.4 mph 29.9 mph N/A   Scattered Clouds
3:00 PM 44.6 °F 36.6 °F 23.0 °F 43% 29.47 in 6.2 mi SSW 19.6 mph - N/A   Mostly Cloudy
3:26 PM 42.8 °F 34.3 °F 23.0 °F 46% 29.47 in 6.2 mi SW 19.6 mph 31.1 mph N/A   Scattered Clouds
3:30 PM 42.8 °F 34.3 °F 23.0 °F 46% 29.47 in 6.2 mi SW 19.6 mph 31.1 mph N/A   Scattered Clouds
4:00 PM 42.8 °F 34.0 °F 26.6 °F 53% 29.50 in 6.2 mi WSW 20.7 mph - N/A Rain Light Rain Showers
4:12 PM 41.0 °F 32.2 °F 28.4 °F 61% 29.50 in 6.2 mi WSW 18.4 mph 29.9 mph N/A Rain Light Rain Showers
4:30 PM 41.0 °F 34.7 °F 28.4 °F 61% 29.50 in 6.2 mi SW 10.4 mph - N/A   Mostly Cloudy
5:00 PM 39.2 °F 35.9 °F 28.4 °F 65% 29.50 in 6.2 mi West 4.6 mph - N/A Rain Light Rain Showers
5:30 PM 39.2 °F 31.6 °F 30.2 °F 70% 29.53 in 6.2 mi WSW 12.7 mph - N/A   Mostly Cloudy
6:00 PM 39.2 °F 32.0 °F 26.6 °F 61% 29.53 in 6.2 mi WSW 11.5 mph - N/A Rain Light Rain Showers
6:30 PM 37.4 °F 27.8 °F 26.6 °F 65% 29.53 in 6.2 mi SW 17.3 mph - N/A   Mostly Cloudy
7:00 PM 37.4 °F 30.3 °F 26.6 °F 65% 29.56 in 6.2 mi South 10.4 mph - N/A   Partly Cloudy
7:30 PM 37.4 °F 31.4 °F 24.8 °F 60% 29.59 in 6.2 mi WSW 8.1 mph - N/A   Partly Cloudy
8:00 PM 37.4 °F 32.1 °F 21.2 °F 52% 29.59 in 6.2 mi WSW 6.9 mph - N/A   Partly Cloudy
8:30 PM 37.4 °F 31.4 °F 21.2 °F 52% 29.62 in 6.2 mi WSW 8.1 mph - N/A   Scattered Clouds
9:00 PM 37.4 °F 30.8 °F 21.2 °F 52% 29.62 in 6.2 mi SSW 9.2 mph - N/A   Partly Cloudy
9:30 PM 37.4 °F 29.8 °F 21.2 °F 52% 29.62 in 6.2 mi SSW 11.5 mph - N/A   Partly Cloudy
10:00 PM 37.4 °F 29.3 °F 21.2 °F 52% 29.65 in 6.2 mi SW 12.7 mph 26.5 mph N/A Rain Light Rain Showers
10:30 PM 35.6 °F 27.1 °F 23.0 °F 60% 29.65 in 6.2 mi SSW 12.7 mph - N/A Snow Light Snow Showers
11:00 PM 35.6 °F 26.2 °F 21.2 °F 56% 29.65 in 6.2 mi SW 15.0 mph - N/A Snow Light Snow Showers
11:30 PM 35.6 °F 27.5 °F 21.2 °F 56% 29.65 in 6.2 mi SW 11.5 mph - N/A   Partly Cloudy